Weather History for MHRO - October, 2011

Change the Weather History Date:

Saturday, October 8, 2011

  Actual Average Record
Temperature  
Mean Temperature 80 °F -  
Max Temperature 84 °F 84 °F 90 °F (2013)
Min Temperature 76 °F 75 °F 37 °F (2008)
Cooling Degree Days 15    
Growing Degree Days 30 (Base 50)    
Moisture  
Dew Point 74 °F    
Average Humidity 79    
Maximum Humidity 89    
Minimum Humidity 70    
Precipitation  
Precipitation 0.00 in - - ()
Sea Level Pressure  
Sea Level Pressure 29.84 in    
Wind  
Wind Speed 5 mph ()    
Max Wind Speed 14 mph    
Max Gust Speed -    
Visibility 6.6 miles    
Events      
Averages and records for this station are not official NWS values.
T = Trace of Precipitation, MM = Missing Value Source: Averaged Metar Reports

Daily Weather History Graph

Daily Weather History Graph

Search for Another Location

Airport or City:

Trip Planner

Search our weather history database for the weather conditions in past years. The results will help you decide how hot, cold, wet, or windy it might be!

Date:

Astronomy

Oct. 08, 2011 Rise Set
Actual Time 5:37 AM CST 5:30 PM CST
Civil Twilight 5:15 AM CST 5:51 PM CST
Nautical Twilight 4:50 AM CST 6:16 PM CST
Astronomical Twilight 4:25 AM CST 6:41 PM CST
Moon 3:20 PM CST (10/8) 2:48 AM CST (10/8)
Length of Visible Light 12h 36m
Length of Day
11h 52m
Waxing Gibbous, 90% of the Moon is Illuminated
Oct 8
Waxing Gibbous
Oct 11
Full
Oct 19
Last Quarter
Oct 26
New
Nov 2
First Quarter

Hourly Weather History & Observations

Time (CST) Temp. Heat Index Dew Point Humidity Pressure Visibility Wind Dir Wind Speed Gust Speed Precip Events Conditions
6:00 AM 77 °F - 74 °F 88% 29.86 in 9 mi Calm Calm - -  
6:00 AM 77.0 °F - 73.4 °F 89% 29.86 in 6.2 mi Calm Calm - N/A   Mostly Cloudy
7:00 AM 78.8 °F - 73.4 °F 83% 29.86 in 6.2 mi Calm Calm - N/A   Mostly Cloudy
8:00 AM 80.6 °F 86.2 °F 75.2 °F 84% 29.89 in 6.2 mi Calm Calm - N/A   Scattered Clouds
9:00 AM 82 °F - 75 °F 74% 29.89 in 9 mi West 8.1 mph - -   Partly Cloudy
9:00 AM 82.4 °F 89.5 °F 75.2 °F 79% 29.89 in 6.2 mi West 8.1 mph - N/A   Mostly Cloudy
10:00 AM 82.4 °F 88.2 °F 73.4 °F 74% 29.89 in 6.2 mi WSW 10.4 mph - N/A   Mostly Cloudy
11:00 AM 82.4 °F 88.2 °F 73.4 °F 74% 29.86 in 6.2 mi WNW 8.1 mph - N/A   Mostly Cloudy
12:00 PM 82 °F - 74 °F 70% 29.86 in 9 mi West 10.4 mph - -   Haze
12:00 PM 82.4 °F 88.2 °F 73.4 °F 74% 29.86 in 6.2 mi West 10.4 mph - N/A   Mostly Cloudy
1:00 PM 84.2 °F 92.3 °F 75.2 °F 74% 29.83 in 6.2 mi West 11.5 mph - N/A   Mostly Cloudy
2:00 PM 84.2 °F 92.3 °F 75.2 °F 74% 29.80 in 6.2 mi WNW 13.8 mph - N/A   Scattered Clouds
3:00 PM - - - % 29.80 in 9 mi WNW 13.8 mph - -   Haze
3:00 PM 84.2 °F 92.3 °F 75.2 °F 74% 29.77 in 6.2 mi WNW 13.8 mph - N/A   Mostly Cloudy
4:00 PM 84.2 °F 92.3 °F 75.2 °F 74% 29.77 in 6.2 mi WNW 10.4 mph - N/A   Scattered Clouds
5:00 PM 84.2 °F 92.3 °F 75.2 °F 74% 29.77 in 6.2 mi WNW 8.1 mph - N/A   Scattered Clouds
6:00 PM 80.6 °F 85.4 °F 73.4 °F 79% 29.80 in 1.9 mi North - - N/A   Scattered Clouds
7:00 PM 78.8 °F - 75.2 °F 89% 29.80 in 6.2 mi Calm Calm - N/A   Partly Cloudy
8:00 PM 77.0 °F - 73.4 °F 89% 29.83 in 6.2 mi Calm Calm - N/A   Partly Cloudy